This is the latest recevied weather packets stored in our database for station/object AA5QJ. If no packets are shown the sender has not sent any weather packets the latest 1 day(s).
| Time | Temp. | Humidity | Pressure | Rain* | Wind** | Luminosity | Snow |
|---|---|---|---|---|---|---|---|
| 1778092675 | 2.22° C | 37% | 1015.3 hPa | 0 mm | - | - | - |
| 1778091774 | 5.56° C | 38% | 1015.3 hPa | 0 mm | - | - | - |
| 1778091476 | 7.22° C | 38% | 1015.3 hPa | 0 mm | - | - | - |
| 1778090275 | 8.33° C | 40% | 1015.6 hPa | 0 mm | - | - | - |
| 1778089975 | 8.33° C | 40% | 1015.6 hPa | 0 mm | - | - | - |
| 1778089076 | 8.33° C | 40% | 1015.6 hPa | 0 mm | - | - | - |
| 1778088775 | 8.33° C | 41% | 1015.6 hPa | 0 mm | - | - | - |
| 1778087576 | 8.33° C | 41% | 1015.6 hPa | 0 mm | - | - | - |
| 1778087276 | 8.33° C | 41% | 1015.3 hPa | 0 mm | - | - | - |
| 1778086375 | 7.78° C | 42% | 1015.3 hPa | 0 mm | - | - | - |
| 1778086075 | 7.78° C | 42% | 1015.3 hPa | 0 mm | - | - | - |
| 1778085476 | 7.78° C | 43% | 1015.3 hPa | 0 mm | - | - | - |
| 1778084875 | 7.22° C | 44% | 1015.3 hPa | 0 mm | - | - | - |
| 1778084276 | 6.11° C | 44% | 1015.3 hPa | 0 mm | - | - | - |
| 1778083976 | -3.33° C | 45% | 1015.3 hPa | 0 mm | - | - | - |
| 1778081575 | 12.22° C | 47% | 1015.3 hPa | 0 mm | - | - | - |
| 1778080974 | 12.78° C | 48% | 1015.3 hPa | 0 mm | - | - | - |
| 1778080075 | 13.33° C | 47% | 1014.9 hPa | 0 mm | - | - | - |
| 1778079474 | 13.33° C | 47% | 1014.9 hPa | 0 mm | - | - | - |
| 1778079174 | 13.33° C | 47% | 1014.9 hPa | 0 mm | - | - | - |
| 1778078876 | 12.78° C | 47% | 1014.9 hPa | 0 mm | - | - | - |
| 1778077975 | 12.78° C | 47% | 1014.6 hPa | 0 mm | - | - | - |
| 1778075876 | 12.22° C | 50% | 1014.3 hPa | 0 mm | - | - | - |
| 1778074675 | 11.11° C | 57% | 1013.9 hPa | 0 mm | - | - | - |
| 1778073176 | 10.56° C | 60% | 1013.6 hPa | 0 mm | - | - | - |
* Rain latest hour (hover to see other rain measurements)
** Current wind speed in m/s (hover to see current wind gust speed)